EW4389 Weather Reports


Display with metric or nautical units.
time (UTC)temp
F
wind
direction
speed
MPH
gust
MPH
rain 1hr
in
rain 24hr
in
rain mn
in
humidity
%
barometer
mb
20260507100045 36 318 1.0 4.0 0.00 0.24 0.00 54 1008.8
20260507094531 36 318 1.0 3.0 0.00 0.24 0.00 55 1008.8
20260507093030 36 318 1.0 5.0 0.00 0.24 0.00 55 1008.7
20260507091530 36 319 1.0 4.0 0.00 0.24 0.00 56 1008.7
20260507090031 36 319 1.0 3.0 0.00 0.24 0.00 57 1008.6
20260507084524 36 319 1.0 3.0 0.00 0.24 0.00 57 1008.7
20260507083021 37 319 0.0 2.0 0.00 0.24 0.00 57 1008.7
20260507081521 37 319 0.0 1.0 0.00 0.24 0.00 57 1008.6
20260507080017 37 319 0.0 2.0 0.00 0.24 0.00 57 1008.8
20260507074514 38 319 0.0 2.0 0.00 0.24 0.00 57 1008.8
20260507073011 38 319 0.0 3.0 0.00 0.24 0.00 57 1008.9
20260507071511 39 319 1.0 3.0 0.00 0.24 0.00 56 1008.9
20260507070009 40 319 0.0 3.0 0.00 0.24 0.00 55 1008.9
20260507064503 40 319 0.0 0.0 0.00 0.24 0.00 55 1008.8
20260507063100 40 319 0.0 0.0 0.00 0.24 0.00 55 1008.8
20260507061600 41 319 0.0 0.0 0.00 0.24 0.00 54 1009.0
20260507060059 41 319 0.0 3.0 0.00 0.24 0.00 54 1009.2
20260507054556 41 319 1.0 3.0 0.00 0.24 0.00 54 1009.3
20260507053055 41 319 2.0 4.0 0.00 0.24 0.00 53 1009.5
20260507051553 41 315 1.0 4.0 0.00 0.24 0.00 52 1009.5
20260507050051 41 323 3.0 5.0 0.00 0.24 0.00 50 1009.6
20260507044550 41 322 1.0 8.0 0.00 0.24 0.00 49 1009.6
20260507043047 41 321 3.0 5.0 0.00 0.24 0.00 49 1009.4
20260507041547 42 322 3.0 5.0 0.00 0.24 0.00 49 1009.3
20260507040043 42 327 2.0 4.0 0.00 0.24 0.24 49 1009.3
20260507034544 42 327 3.0 5.0 0.00 0.24 0.24 49 1009.2
20260507033040 42 328 4.0 6.0 0.00 0.24 0.24 49 1009.1
20260507031539 42 328 3.0 6.0 0.00 0.24 0.24 49 1009.0
20260507030039 42 328 4.0 10.0 0.00 0.24 0.24 49 1009.0
20260507024537 42 334 4.0 9.0 0.00 0.24 0.24 49 1008.8
20260507023040 43 329 6.0 12.0 0.00 0.24 0.24 48 1008.9
20260507021532 43 348 4.0 9.0 0.00 0.24 0.24 48 1008.9
20260507020036 43 344 2.0 9.0 0.00 0.24 0.24 48 1008.9
20260507014541 43 351 5.0 12.0 0.00 0.24 0.24 49 1009.0
20260507013028 44 330 4.0 13.0 0.00 0.24 0.24 49 1008.7
20260507011528 44 350 7.0 13.0 0.00 0.24 0.24 49 1008.7
20260507010026 45 339 7.0 11.0 0.00 0.24 0.24 50 1008.7
20260507004533 45 339 7.0 13.0 0.00 0.24 0.24 50 1008.3
20260507003025 45 329 7.0 12.0 0.00 0.24 0.24 50 1008.2
20260507001525 46 325 9.0 16.0 0.00 0.24 0.24 51 1007.9
20260507000025 47 312 11.0 15.0 0.00 0.24 0.24 49 1007.8
20260506234529 47 314 9.0 13.0 0.00 0.24 0.24 49 1007.5
20260506233015 48 321 7.0 12.0 0.00 0.24 0.24 48 1007.3
20260506231528 48 277 3.0 7.0 0.00 0.24 0.24 48 1007.1
20260506230011 48 355 2.0 4.0 0.00 0.25 0.24 47 1006.9
20260506224510 48 355 2.0 5.0 0.00 0.25 0.24 46 1006.8
20260506223007 47 356 0.0 2.0 0.00 0.25 0.24 46 1006.6
20260506221506 47 356 0.0 2.0 0.00 0.25 0.24 46 1006.5
20260506220006 47 356 0.0 4.0 0.00 0.25 0.24 46 1006.4
20260506214505 48 356 0.0 3.0 0.00 0.25 0.24 45 1006.3
20260506213004 47 356 0.0 3.0 0.00 0.25 0.24 44 1006.4
20260506211509 47 356 0.0 4.0 0.00 0.25 0.24 44 1006.3
20260506210002 47 356 2.0 5.0 0.00 0.25 0.24 44 1006.3
20260506204502 47 356 2.0 5.0 0.00 0.25 0.24 44 1006.3
20260506203001 47 357 2.0 5.0 0.00 0.25 0.24 44 1006.1
20260506201610 46 357 1.0 4.0 0.00 0.25 0.24 44 1006.3
20260506194614 46 358 2.0 5.0 0.00 0.25 0.24 45 1006.2
20260506193056 45 358 1.0 4.0 0.00 0.25 0.24 45 1005.9
20260506191556 45 357 3.0 8.0 0.01 0.25 0.24 45 1005.9
20260506190056 45 360 4.0 10.0 0.01 0.25 0.24 45 1006.0
20260506184607 45 353 5.0 9.0 0.01 0.25 0.24 45 1005.9
20260506183101 45 352 6.0 10.0 0.01 0.25 0.24 45 1005.8
20260506181553 45 360 4.0 9.0 0.00 0.24 0.23 45 1005.6
20260506180054 45 360 4.0 10.0 0.00 0.24 0.23 45 1005.6
20260506174552 45 3 4.0 8.0 0.00 0.24 0.23 45 1005.7
20260506173052 45 9 1.0 5.0 0.00 0.24 0.23 45 1005.4
20260506171549 46 9 2.0 4.0 0.00 0.24 0.23 45 1005.2
20260506170106 46 9 2.0 8.0 0.00 0.24 0.23 45 1004.9
20260506164545 46 26 1.0 9.0 0.00 0.24 0.23 45 1004.8
20260506163054 46 38 1.0 4.0 0.00 0.24 0.23 44 1004.9
20260506161544 46 37 2.0 8.0 0.00 0.24 0.23 45 1004.7
20260506160043 46 140 0.0 6.0 0.01 0.24 0.23 45 1004.8
20260506154543 45 140 0.0 5.0 0.02 0.24 0.23 45 1004.6
20260506153041 45 140 1.0 5.0 0.02 0.24 0.23 45 1004.7
20260506151544 45 140 0.0 5.0 0.03 0.24 0.23 45 1004.6
20260506150039 44 140 1.0 5.0 0.02 0.23 0.22 45 1004.5
20260506144550 44 140 1.0 5.0 0.01 0.22 0.21 45 1004.5
20260506143038 44 140 1.0 5.0 0.01 0.22 0.21 46 1004.1
20260506141537 44 140 0.0 6.0 0.01 0.21 0.20 46 1003.8
20260506140038 44 140 1.0 4.0 0.01 0.21 0.20 46 1003.7
20260506134536 43 140 1.0 5.0 0.02 0.21 0.20 46 1003.8
20260506133035 43 140 1.0 3.0 0.02 0.21 0.20 46 1003.6
20260506131535 43 133 2.0 8.0 0.02 0.20 0.19 46 1003.5
20260506130034 43 113 3.0 9.0 0.04 0.20 0.19 46 1003.5
20260506124532 43 138 1.0 8.0 0.04 0.19 0.18 46 1003.6
20260506123032 43 136 2.0 11.0 0.05 0.19 0.18 46 1003.7
20260506121529 43 134 2.0 7.0 0.05 0.18 0.17 46 1003.7
20260506120038 43 132 1.0 9.0 0.04 0.16 0.15 46 1003.8
20260506114526 43 136 4.0 11.0 0.05 0.15 0.14 46 1003.4
20260506113029 43 116 2.0 9.0 0.07 0.14 0.13 46 1003.2
20260506111522 43 115 4.0 11.0 0.12 0.13 0.12 46 1002.9
20260506110020 44 88 1.0 10.0 0.11 0.12 0.11 46 1003.2
20260506104517 44 75 3.0 11.0 0.09 0.10 0.09 46 1003.0
20260506103014 45 124 5.0 12.0 0.06 0.07 0.06 46 1003.2
20260506101513 45 101 5.0 11.0 0.00 0.01 0.00 45 1003.3